This is the latest recevied weather packets stored in our database for station/object KO4FR. If no packets are shown the sender has not sent any weather packets the latest 10 day(s).
| Time | Temp. | Humidity | Pressure | Rain* | Wind** | Luminosity | Snow |
|---|---|---|---|---|---|---|---|
| 1778021702 | 25° C | 40% | 1013.1 hPa | 0 mm | - | - | - |
| 1778021402 | 25.56° C | 39% | 1013.1 hPa | 0 mm | - | - | - |
| 1778021102 | 25.56° C | 39% | 1013 hPa | 0 mm | - | - | - |
| 1778020802 | 25.56° C | 39% | 1013.2 hPa | 0 mm | - | - | - |
| 1778020502 | 25° C | 40% | 1013.1 hPa | 0 mm | - | - | - |
| 1778020202 | 25° C | 39% | 1013.1 hPa | 0 mm | - | - | - |
| 1778019902 | 25.56° C | 39% | 1013.2 hPa | 0 mm | - | - | - |
| 1778019602 | 25.56° C | 38% | 1013.3 hPa | 0 mm | - | - | - |
| 1778019302 | 25.56° C | 38% | 1013.2 hPa | 0 mm | - | - | - |
| 1778019002 | 25.56° C | 39% | 1013.1 hPa | 0 mm | - | - | - |
| 1778018702 | 25.56° C | 38% | 1013 hPa | 0 mm | - | - | - |
| 1778018402 | 26.11° C | 38% | 1013.3 hPa | 0 mm | - | - | - |
| 1778018102 | 26.11° C | 38% | 1013.1 hPa | 0 mm | - | - | - |
| 1778017802 | 26.11° C | 37% | 1013.1 hPa | 0 mm | - | - | - |
| 1778017502 | 26.11° C | 37% | 1013.2 hPa | 0 mm | - | - | - |
| 1778017202 | 26.11° C | 37% | 1013.1 hPa | 0 mm | - | - | - |
| 1778016902 | 26.67° C | 35% | 1013.1 hPa | 0 mm | - | - | - |
| 1778016602 | 26.67° C | 35% | 1013.1 hPa | 0 mm | - | - | - |
| 1778016302 | 26.67° C | 36% | 1013 hPa | 0 mm | - | - | - |
| 1778016002 | 26.67° C | 35% | 1013.1 hPa | 0 mm | - | - | - |
| 1778015702 | 27.22° C | 34% | 1013.2 hPa | 0 mm | - | - | - |
| 1778015402 | 27.22° C | 34% | 1013.2 hPa | 0 mm | - | - | - |
| 1778015102 | 27.22° C | 34% | 1013.2 hPa | 0 mm | - | - | - |
| 1778014802 | 27.22° C | 35% | 1013.2 hPa | 0 mm | - | - | - |
| 1778014501 | 27.22° C | 34% | 1013.2 hPa | 0 mm | - | - | - |
* Rain latest hour (hover to see other rain measurements)
** Current wind speed in m/s (hover to see current wind gust speed)